Flag for U.S.A. Weather past 2 weeks in San Bernardino, California, U.S.A.

Now
54 °F

Fog.


Feels Like: 54 °F
Forecast: 49 / 66 °F
Wind: No wind

Location: Riverside Municipal Airport

Current Time: Jan 27, 2015 at 1:25:12 AM

Latest Report: Jan 27, 2015 at 12:53 AM


Visibility: 4 mi

Pressure: 30.09 "Hg

Humidity: 93%

Dew point: 52 °F

Location of San BernardinoLocation

Historic Weather in San Bernardino — Graph

°F

San Bernardino temperature yesterday

Maximum temperature yesterday: 75 °F (at 11:53 AM)
Minimum temperature yesterday: 54 °F (at 1:53 AM)
Average temperature yesterday: 61 °F

Past Weeks' High & Low Weather Summary

 TemperatureHumidityPressure
High82 °F (Jan 25, 12:53 PM)100% (Jan 12, 1:53 AM)30.24 "Hg (Jan 12, 1:53 AM)
Low43 °F (Jan 16, 5:53 AM)7% (Jan 22, 1:53 PM)29.86 "Hg (Jan 20, 3:53 PM)
Average60 °F44%30.09 "Hg
* Reported Jan 11 11:53 PM — Jan 26 11:53 PM, San Bernardino, Weather by CustomWeather, © 2014

Note: Actual official high and low records may vary slightly from our data, if they occured in-between our weather recording intervals... More about our weather records

Advertising

San Bernardino weather history for previous 24 hours

 ConditionsComfort  
Time TempWeatherWind HumidityBarometerVisibility
11:53 PM
Jan 26
54 °FFog.No wind97%30.09 "Hg5 mi
10:53 PM54 °FFog.No wind93%30.08 "Hg4 mi
9:53 PM54 °FMostly cloudy.No wind93%30.07 "Hg7 mi
8:53 PM55 °FMostly cloudy.3 mph93%30.06 "Hg10 mi
7:53 PM56 °FMostly cloudy.5 mph93%30.06 "Hg10 mi
6:53 PM57 °FLight rain. Overcast.3 mph90%30.04 "Hg10 mi
5:53 PM58 °FLight rain. Mostly cloudy.No wind90%30.02 "Hg10 mi
4:53 PM57 °FLight rain. Overcast.3 mph93%30.03 "Hg9 mi
3:53 PM59 °FHeavy rain. More clouds than sun.9 mph84%30.03 "Hg4 mi
2:53 PM63 °FRain. Overcast.8 mph70%30.01 "Hg6 mi
1:53 PM70 °FOvercast.12 mph42%29.97 "Hg10 mi
12:53 PM74 °FScattered clouds.16 mph26%29.96 "Hg10 mi
11:53 AM75 °FPartly sunny.13 mph22%29.97 "Hg10 mi
10:53 AM74 °FPartly sunny.No wind24%30.00 "Hg10 mi
9:53 AM72 °FSunny.No wind25%30.01 "Hg10 mi
8:53 AM64 °FSunny.5 mph35%29.99 "Hg10 mi
7:53 AM60 °FOvercast.8 mph39%29.99 "Hg10 mi
6:53 AM61 °FPartly sunny.8 mph36%29.98 "Hg10 mi
5:53 AM58 °FClear.7 mph43%29.98 "Hg10 mi
4:53 AM57 °FPassing clouds.3 mph46%29.98 "Hg10 mi
3:53 AM57 °FOvercast.3 mph44%29.97 "Hg10 mi
2:53 AM58 °FPassing clouds.6 mph43%29.98 "Hg10 mi
1:53 AM54 °FClear.6 mph51%29.99 "Hg10 mi
Weather by CustomWeather, © 2014

See weather overviewHow to use our weather pages